Weather Service Report


754 
ASUS42 KRAH 181510
RWRRAH
NORTH CAROLINA WEATHER ROUNDUP
NATIONAL WEATHER SERVICE RALEIGH NC
1000 AM EST SAT NOV 18 2017

NOTE: "FAIR" INDICATES FEW OR NO CLOUDS BELOW 12,000 FEET WITH NO
SIGNIFICANT WEATHER AND/OR OBSTRUCTIONS TO VISIBILITY.

NCZ001-053-055-056-065-067-181600-
WESTERN NORTH CAROLINA
  
CITY           SKY/WX    TMP DP  RH WIND       PRES   REMARKS
ASHEVILLE      SUNNY     53  44  71 S14       29.96F                  
JEFFERSON      MOSUNNY   49  34  54 SE6       29.89F                  
MORGANTON      MOSUNNY   50  40  68 CALM      30.00F                  
HICKORY        MOSUNNY   54  44  69 SW10      29.96F                  
RUTHERFORDTON  MOSUNNY   51  43  73 S8        30.00F                  
MOUNT AIRY     MOSUNNY   49  37  64 CALM      29.97F                  
BOONE          CLOUDY    56  32  40 SW12G21   29.91F                  
$$
 
NCZ021-022-025-041-071-084-088-181600-
CENTRAL NORTH CAROLINA
  
CITY           SKY/WX    TMP DP  RH WIND       PRES   REMARKS
CHARLOTTE      PTSUNNY   53  42  66 SW8       30.02F                  
GREENSBORO     PTSUNNY   51  40  65 SW10      29.96F                  
WINSTON-SALEM  MOSUNNY   51  38  60 SW10      29.97F                  
RALEIGH-DURHAM PTSUNNY   54  41  61 SW12      30.01F                  
FORT BRAGG     SUNNY     55  42  62 SW9       30.02F                  
FAYETTEVILLE   SUNNY     55  45  68 S12       30.04S                  
BURLINGTON     SUNNY     54  40  59 S9        29.97F                  
LAURINBURG     SUNNY     56  45  66 SW8       30.05S                  
$$
 
NCZ011-015-027-028-043-044-047-080-103-181600-
NORTHEASTERN NORTH CAROLINA
  
CITY           SKY/WX    TMP DP  RH WIND       PRES   REMARKS
ROCKY MT-WILSO SUNNY     53  44  71 S9        30.01F                  
GREENVILLE     SUNNY     54  41  62 S9        30.05F                  
WASHINGTON     SUNNY     52  42  67 S6        30.05F                  
ELIZABETH CITY SUNNY     54  45  71 SW13      30.03F                  
MANTEO         CLOUDY    53  43  69 S10       30.06S                  
CAPE HATTERAS  CLOUDY    59  51  75 S3        30.06F                  
$$
 
NCZ078-087-090-091-093-098-101-181600-
SOUTHEASTERN NORTH CAROLINA
  
CITY           SKY/WX    TMP DP  RH WIND       PRES   REMARKS
LUMBERTON      SUNNY     58  48  69 S5        30.04F                  
GOLDSBORO      SUNNY     55  45  68 S7        30.01F                  
KINSTON        SUNNY     54  43  66 S7        30.04F                  
KENANSVILLE    SUNNY     55  45  67 S6        30.04F                  
NEW BERN       SUNNY     56  49  77 S9        30.06F                  
CHERRY POINT   SUNNY     57  48  72 S7        30.07F                  
BEAUFORT       SUNNY     60  51  72 S5        30.07F                  
JACKSONVILLE   SUNNY     59  52  77 VRB7      30.04F                  
WILMINGTON     SUNNY     63  52  67 S7        30.05F                  
$$

  

Return to Home page


Western Regional Climate Center, wrcc@dri.edu